Location: Cabri�res
(43.7840°N, 5.4986°E)
Time: 13:13:26
(UTC+00:00)

FALCON 9 DEB - Pass Details

Date: 09 April 2020
Orbit: 429 x 442 km, 53.0° (Epoch: 26 May)

Event Time Altitude Azimuth Distance (km) Brightness Sun altitude
Rises 19:25:36 0° 241° (WSW) 2,423 7.5 -12.9°
Reaches altitude 10° 19:27:44 10° 244° (WSW) 1,555 6.5 -13.3°
Maximum altitude 19:31:13 66° 327° (NNW) 485 3.5 -13.8°
Drops below altitude 10° 19:34:42 10° 51° (NE) 1,559 5.7 -14.4°
Enters shadow 19:35:12 - 52° (NE) 1,760 5.9 -14.5°
